Powrót do katalogu

SL-12 R/B(2)

AktywnyMEO
NORAD 14984·ROCKET BODY·🇷🇺 Russia

Wystrzelony May 19, 1984 z Baikonur Cosmodrome

Loading…

Następne Przeloty (najbliższe 24 godziny)

TLE

Starzejące sięSource: Space-Track

Epoka: Aug 22, 2026, 20:20 UTC

1 14984U 84047F   26234.84780603 -.00000079  00000-0  00000+0 0  9998
2 14984  66.3553 326.2613 0010533 227.3801 135.0770  2.13163326328973

Śledź SL-12 R/B(2) w czasie rzeczywistym z AllMySat

Download on the App Store